Simultaneous Nadir Overpasses (SNOs) Predictions

Prediction of SNOs between NPP and TERRA Satellite Orbit:

Table of predicted SNOs for the next 14.0 days since TLE Epoch: 3/16/2013
Index Date (NPP) Time (NPP) Lat,Lon (NPP) SZA (NPP ) Date (TERRA) Time (TERRA) Lat,Lon (TERRA) SZA (TERRA ) Distance(km) Time Diff (sec)
1 03/18/2013 03:45:54 68.22, 121.90 69.06 03/18/2013 03:46:34 68.24, 121.94 69.07 2.37 40
2 03/18/2013 04:36:35 -68.07, -70.59 111.11 03/18/2013 04:36:05 -68.07, -70.62 111.10 1.48 30
3 03/20/2013 19:12:18 -68.92, 69.43 111.26 03/20/2013 19:13:27 -68.86, 70.93 111.37 60.71 69
4 03/20/2013 20:02:50 68.17,-122.26 67.95 03/20/2013 20:03:04 68.19,-122.24 67.97 2.95 14
5 03/20/2013 20:53:31 -68.02, 45.24 112.23 03/20/2013 20:52:35 -68.03, 45.20 112.21 2.38 56
6 03/23/2013 11:29:03 -68.24,-173.90 113.04 03/23/2013 11:30:08 -68.25,-173.95 113.03 2.32 65
7 03/23/2013 12:19:47 68.12, -6.44 66.84 03/23/2013 12:19:35 68.13, -6.44 66.84 0.94 12
8 03/23/2013 13:10:22 -67.65, 161.47 113.67 03/23/2013 13:09:10 -67.75, 160.75 113.55 32.21 72
9 03/26/2013 03:46:00 -68.19, -58.08 114.14 03/26/2013 03:46:38 -68.22, -58.09 114.11 3.33 38
10 03/26/2013 04:36:44 68.08, 109.37 65.74 03/26/2013 04:36:05 68.10, 109.41 65.76 3.06 39
11 03/28/2013 19:12:22 68.64,-110.21 65.28 03/28/2013 19:13:33 68.56,-109.44 65.19 32.23 71
12 03/28/2013 20:02:57 -68.16, 57.73 115.23 03/28/2013 20:03:08 -68.18, 57.74 115.20 2.77 11
13 03/28/2013 20:53:41 68.05,-134.82
